Regional Weather Roundup
Issued by NWS

Home | Current Version | Previous Version | Graphics & Text | Print | Product List | Glossary On
Versions: 1 2 3 4 5 6 7 8 9 10 11 12 13 14 15 16 17 18 19 20 21 22 23 24 25 26 27 28 29 30 31 32 33 34 35 36 37 38 39 40 41 42 43 44 45 46 47 48 49 50
000
ASUS44 KMEG 231710
RWRTN
TENNESSEE HOURLY STATE WEATHER ROUNDUP
NATIONAL WEATHER SERVICE MEMPHIS TN
1200 PM CDT WED APR 23 2014

TNZ002-004-019-021-049-052-054-088>092-231800-
WEST TENNESSEE

CITY           SKY/WX    TMP DP  RH WIND       PRES   REMARKS
MEMPHIS INTL   SUNNY     71  37  28 E7        30.04F
NWS MEMPHIS      N/A     72 N/A N/A MISG        N/A
JACKSON        SUNNY     70  33  25 NE9       30.05F
DYERSBURG      SUNNY     66  36  32 NE8       30.07F
UNION CITY     SUNNY     63  37  39 NE9       30.07S
PARIS          SUNNY     61  36  39 E12       30.08F
LEXINGTON      SUNNY     66  36  32 E8        30.04F
SILERTON         N/A     70  33  26 NE3         N/A
SAVANNAH       SUNNY     70  39  32 NE8       30.04F
$$

TNZ008-025-027-028-033-062-065-066-231800-
NORTH MIDDLE TENNESSEE

CITY           SKY/WX    TMP DP  RH WIND       PRES   REMARKS
NASHVILLE      MOSUNNY   63  36  36 NE7G16    30.08F
DICKSON        SUNNY     63  34  34 N9        30.07F
PORTLAND         N/A     57  34  41 N10       30.08
CLARKSVILLE    SUNNY     61  39  44 VRB6      30.09F
SMYRNA         SUNNY     63  35  35 NE12      30.08F
MURFREESBORO   SUNNY     62  35  36 VRB7      30.07F
COOKEVILLE     SUNNY     61  34  36 VRB5      30.07S
LIVINGSTON     SUNNY     56  29  35 N9        30.08R
GALLATIN       SUNNY     62  34  35 VRB5      30.09F
CROSSVILLE     SUNNY     60  27  28 N6        30.06S
$$

TNZ061-075-076-078-094-096-097-231800-
SOUTH MIDDLE TENNESSEE

CITY           SKY/WX    TMP DP  RH WIND       PRES   REMARKS
LEWISBURG      SUNNY     63  39  41 N8        30.06F
FAYETTEVILLE   SUNNY     63  36  36 N9        30.05F
TULLAHOMA      SUNNY     63  34  34 NE10      30.07S
WINCHESTER     SUNNY     63  36  36 N9        30.05F
MCMINNVILLE    SUNNY     63  36  36 NE10      30.07F
COLUMBIA       SUNNY     64  46  52 VRB6      30.05F
SHELBYVILLE    SUNNY     63  41  45 N13       30.08S
$$

TNZ017-018-042-046-047-231800-
NORTHEAST TENNESSEE

CITY           SKY/WX    TMP DP  RH WIND       PRES   REMARKS
TRI CITIES     SUNNY     61  19  19 VRB6      29.99F
ELIZABETHTON   SUNNY     57  27  30 CALM      29.99F
$$

TNZ012-013-036-069-073-074-231800-
CENTRAL EAST TENNESSEE

CITY           SKY/WX    TMP DP  RH WIND       PRES   REMARKS
KNOXVILLE      SUNNY     62  31  31 VRB5      30.03F
OAK RIDGE      SUNNY     63  28  26 VRB3      30.04F
$$

TNZ083-085-099-231800-
SOUTHEAST TENNESSEE

CITY           SKY/WX    TMP DP  RH WIND       PRES   REMARKS
CHATTANOOGA    SUNNY     67  36  31 N9        30.02F
$$

SKY/WX REPORTED AS FAIR MEANS FEW OR NO CLOUDS BELOW
12 THOUSAND FEET.




USA.gov is the U.S. government's official web portal to all federal, state and local government web resources and services.